QPF
0.00 0.00 0.00 0.00 0.00 0.00 0.00 0.00 0.00 0.00 0.00 0.00 0.00 0.00 0.00 0.00 0.00 0.00 0.00 0.00 0.00 0.00 0.00 0.00 0.00 0.00 0.00 0.00 0.00 0.00 0.00 0.00 0.00 0.00 0.00 0.00 0.00 0.00 0.00 0.00 0.00 0.00 0.00
0.00 0.00 0.00 0.00 0.00 0.00 0.00 0.00 0.00 0.00 0.00 0.00 0.00 0.00 0.00 0.00 0.00 0.00 0.00 0.00 0.00 0.00 0.00 0.00 0.00 0.00 0.00 0.00 0.00 0.00 0.00 0.00 0.00 0.00 0.00 0.00 0.00 0.00 0.00 0.00 0.00 0.00 0.00
0.00 0.00 0.00 0.00 0.00 0.00 0.00 0.00 0.00 0.00 0.00 0.00 0.00 0.00 0.00 0.00 0.00 0.00 0.00 0.00 0.00 0.00 0.00 0.00 0.00 0.00 0.00 0.00 0.00 0.00 0.00 0.00 0.00 0.00 0.00 0.00 0.00 0.00 0.00 0.00 0.00 0.00 0.00
0.00 0.00 0.00 0.00 0.00 0.00 0.00 0.00 0.00 0.00 0.00 0.00 0.00 0.00 0.00 0.00 0.00 0.00 0.00 0.00 0.00 0.00 0.00 0.00 0.00 0.00 0.00 0.00 0.00 0.00 0.00 0.00 0.00 0.00 0.00 0.00 0.00 0.00 0.00 0.00 0.00 0.00 0.00
0.00 0.00 0.00 0.00 0.00 0.00 0.00 0.00 0.00 0.00 0.00 0.00 0.00 0.00 0.00 0.00 0.00 0.00 0.00 0.00 0.00 0.00 0.00 0.00 0.00 0.00 0.00 0.00 0.00 0.00 0.00 0.00 0.00 0.00 0.00 0.00 0.00 0.00 0.00 0.00 0.00 0.00 0.00
0.00 0.00 0.00 0.00 0.00 0.00 0.00 0.00 0.00 0.00 0.00 0.01 0.01 0.00 0.00 0.00 0.00 0.00 0.00 0.00 0.00 0.00 0.00 0.00 0.00 0.00 0.00 0.00 0.00 0.00 0.00 0.00 0.00 0.00 0.00 0.00 0.00 0.00 0.00 0.00 0.00 0.00 0.00
0.01 0.01 0.01 0.01 0.01 0.01 0.01 0.01 0.01 0.01 0.01 0.01 0.01 0.01 0.00 0.00 0.00 0.00 0.00 0.00 0.00 0.01 0.01 0.00 0.00 0.00 0.00 0.00 0.00 0.00 0.00 0.00 0.00 0.00 0.00 0.00 0.00 0.00 0.00 0.00 0.00 0.00 0.00
0.01 0.01 0.01 0.01 0.01 0.02 0.02 0.01 0.02 0.02 0.02 0.03 0.03 0.03 0.01 0.00 0.00 0.00 0.00 0.00 0.00 0.01 0.01 0.01 0.01 0.01 0.01 0.01 0.00 0.00 0.00 0.00 0.00 0.00 0.00 0.00 0.00 0.00 0.00 0.00 0.00 0.00 0.00
0.01 0.01 0.01 0.02 0.02 0.02 0.02 0.01 0.02 0.03 0.03 0.03 0.04 0.05 0.03 0.01 0.00 0.00 0.00 0.00 0.00 0.01 0.01 0.02 0.02 0.02 0.02 0.01 0.01 0.01 0.01 0.00 0.01 0.01 0.01 0.01 0.00 0.00 0.00 0.00 0.00 0.00 0.00
0.01 0.01 0.01 0.01 0.01 0.01 0.01 0.01 0.02 0.03 0.03 0.03 0.02 0.03 0.03 0.02 0.02 0.01 0.00 0.00 0.01 0.01 0.02 0.03 0.03 0.03 0.02 0.02 0.02 0.02 0.02 0.02 0.02 0.02 0.02 0.02 0.01 0.01 0.01 0.00 0.00 0.00 0.00
0.00 0.00 0.00 0.01 0.01 0.01 0.01 0.01 0.02 0.02 0.03 0.03 0.02 0.02 0.03 0.02 0.02 0.03 0.02 0.00 0.01 0.01 0.02 0.02 0.02 0.03 0.03 0.03 0.03 0.04 0.05 0.05 0.06 0.05 0.05 0.04 0.04 0.03 0.02 0.02 0.02 0.01 0.01
0.00 0.00 0.00 0.00 0.01 0.01 0.01 0.01 0.01 0.02 0.02 0.03 0.03 0.02 0.02 0.02 0.01 0.03 0.03 0.02 0.01 0.02 0.02 0.03 0.03 0.04 0.05 0.06 0.06 0.08 0.10 0.11 0.12 0.12 0.11 0.10 0.09 0.09 0.08 0.07 0.06 0.05 0.04
0.00 0.00 0.00 0.00 0.00 0.00 0.00 0.01 0.01 0.01 0.01 0.02 0.02 0.02 0.02 0.02 0.03 0.03 0.04 0.03 0.02 0.02 0.02 0.03 0.04 0.05 0.06 0.07 0.09 0.12 0.13 0.15 0.18 0.19 0.19 0.18 0.16 0.14 0.14 0.13 0.12 0.11 0.10
0.00 0.00 0.00 0.00 0.00 0.00 0.00 0.00 0.00 0.00 0.01 0.01 0.01 0.02 0.02 0.02 0.03 0.03 0.04 0.04 0.04 0.04 0.04 0.04 0.05 0.07 0.09 0.10 0.13 0.17 0.16 0.19 0.21 0.24 0.26 0.26 0.24 0.20 0.15 0.14 0.14 0.14 0.13
0.00 0.00 0.00 0.00 0.00 0.00 0.00 0.00 0.00 0.00 0.00 0.00 0.01 0.01 0.01 0.01 0.02 0.02 0.03 0.04 0.06 0.06 0.05 0.05 0.06 0.09 0.12 0.14 0.17 0.19 0.18 0.22 0.25 0.27 0.28 0.29 0.28 0.23 0.19 0.16 0.15 0.14 0.12
0.00 0.00 0.00 0.00 0.00 0.00 0.00 0.00 0.00 0.00 0.00 0.00 0.00 0.00 0.01 0.01 0.01 0.01 0.02 0.03 0.05 0.07 0.07 0.07 0.07 0.09 0.13 0.17 0.21 0.21 0.20 0.23 0.25 0.25 0.25 0.26 0.24 0.20 0.16 0.13 0.12 0.10 0.09
0.00 0.00 0.00 0.00 0.00 0.00 0.00 0.00 0.00 0.00 0.00 0.00 0.00 0.00 0.00 0.00 0.00 0.00 0.01 0.01 0.03 0.06 0.08 0.09 0.10 0.11 0.13 0.16 0.18 0.17 0.18 0.20 0.20 0.22 0.23 0.22 0.18 0.14 0.12 0.10 0.08 0.07 0.06
0.00 0.00 0.00 0.00 0.00 0.00 0.00 0.00 0.00 0.00 0.00 0.00 0.00 0.00 0.00 0.00 0.00 0.00 0.00 0.01 0.03 0.05 0.07 0.09 0.10 0.10 0.11 0.11 0.12 0.12 0.13 0.12 0.13 0.16 0.17 0.16 0.13 0.11 0.09 0.07 0.06 0.05 0.04
0.00 0.00 0.00 0.00 0.00 0.00 0.00 0.00 0.00 0.00 0.00 0.00 0.00 0.00 0.00 0.00 0.00 0.00 0.01 0.01 0.03 0.04 0.05 0.06 0.07 0.07 0.07 0.07 0.08 0.08 0.08 0.08 0.08 0.09 0.10 0.10 0.09 0.07 0.06 0.04 0.04 0.03 0.02
0.00 0.00 0.00 0.00 0.00 0.00 0.00 0.00 0.00 0.00 0.00 0.00 0.00 0.00 0.00 0.00 0.00 0.00 0.01 0.01 0.01 0.02 0.03 0.03 0.03 0.03 0.03 0.04 0.05 0.05 0.04 0.04 0.04 0.04 0.05 0.04 0.04 0.03 0.03 0.03 0.02 0.01 0.01
0.00 0.00 0.00 0.00 0.00 0.00 0.00 0.00 0.00 0.00 0.00 0.00 0.00 0.00 0.00 0.00 0.00 0.00 0.00 0.00 0.01 0.01 0.01 0.01 0.01 0.02 0.02 0.03 0.03 0.03 0.03 0.03 0.02 0.02 0.01 0.01 0.01 0.01 0.01 0.01 0.01 0.00 0.00
0.00 0.00 0.00 0.00 0.00 0.00 0.00 0.00 0.00 0.00 0.00 0.00 0.00 0.00 0.00 0.00 0.00 0.00 0.00 0.00 0.00 0.00 0.01 0.01 0.01 0.01 0.01 0.01 0.02 0.01 0.01 0.01 0.01 0.00 0.00 0.00 0.00 0.00 0.00 0.00 0.00 0.00 0.00
0.00 0.00 0.00 0.00 0.00 0.00 0.00 0.00 0.00 0.00 0.00 0.00 0.00 0.00 0.00 0.00 0.00 0.00 0.00 0.00 0.00 0.00 0.00 0.00 0.00 0.00 0.00 0.00 0.00 0.00 0.00 0.00 0.00 0.00 0.00 0.00 0.00 0.00 0.00 0.00 0.00 0.00 0.00
0.00 0.00 0.00 0.00 0.00 0.00 0.00 0.00 0.00 0.00 0.00 0.00 0.00 0.00 0.00 0.00 0.00 0.00 0.00 0.00 0.00 0.00 0.00 0.00 0.00 0.00 0.00 0.00 0.00 0.00 0.00 0.00 0.00 0.00 0.00 0.00 0.00 0.00 0.00 0.00 0.00 0.00 0.00
0.00 0.00 0.00 0.00 0.00 0.00 0.00 0.00 0.00 0.00 0.00 0.00 0.00 0.00 0.00 0.00 0.00 0.00 0.00 0.00 0.00 0.00 0.00 0.00 0.00 0.00 0.00 0.00 0.00 0.00 0.00 0.00 0.00 0.00 0.00 0.00 0.00 0.00 0.00 0.00 0.00 0.00 0.00
0.00 0.00 0.00 0.00 0.00 0.00 0.00 0.00 0.00 0.00 0.00 0.00 0.00 0.00 0.00 0.00 0.00 0.00 0.00 0.00 0.00 0.00 0.00 0.00 0.00 0.00 0.00 0.00 0.00 0.00 0.00 0.00 0.00 0.00 0.00 0.00 0.00 0.00 0.00 0.00 0.00 0.00 0.00
MSLP
1021.02 1021.14 1021.20 1021.23 1021.26 1021.30 1021.37 1021.47 1021.61 1021.76 1021.90 1022.02 1022.10 1022.14 1022.15 1022.14 1022.13 1022.13 1022.15 1022.21 1022.29 1022.39 1022.51 1022.64 1022.78 1022.91 1023.05 1023.19 1023.33 1023.45 1023.58 1023.68 1023.78 1023.85 1023.92 1023.97 1024.01 1024.04 1024.06 1024.08 1024.08 1024.07 1024.05
1020.77 1020.89 1020.96 1021.02 1021.07 1021.14 1021.24 1021.37 1021.52 1021.67 1021.80 1021.91 1021.97 1021.99 1021.98 1021.95 1021.92 1021.91 1021.93 1021.97 1022.05 1022.16 1022.29 1022.43 1022.57 1022.72 1022.86 1023.01 1023.15 1023.30 1023.45 1023.60 1023.74 1023.88 1024.00 1024.11 1024.20 1024.28 1024.33 1024.36 1024.37 1024.36 1024.35
1020.41 1020.54 1020.65 1020.74 1020.84 1020.96 1021.10 1021.26 1021.42 1021.57 1021.69 1021.78 1021.82 1021.83 1021.79 1021.75 1021.70 1021.67 1021.67 1021.70 1021.77 1021.87 1021.99 1022.12 1022.26 1022.40 1022.54 1022.69 1022.85 1023.01 1023.19 1023.38 1023.57 1023.76 1023.95 1024.12 1024.27 1024.38 1024.47 1024.52 1024.54 1024.54 1024.54
1019.97 1020.12 1020.27 1020.42 1020.57 1020.74 1020.91 1021.09 1021.27 1021.42 1021.54 1021.61 1021.64 1021.63 1021.58 1021.52 1021.46 1021.42 1021.40 1021.41 1021.45 1021.53 1021.62 1021.74 1021.86 1021.98 1022.12 1022.27 1022.43 1022.61 1022.81 1023.03 1023.27 1023.52 1023.76 1023.99 1024.19 1024.35 1024.47 1024.54 1024.58 1024.60 1024.61
1019.49 1019.66 1019.84 1020.03 1020.23 1020.43 1020.64 1020.84 1021.02 1021.17 1021.28 1021.34 1021.37 1021.36 1021.31 1021.26 1021.19 1021.14 1021.11 1021.10 1021.13 1021.17 1021.24 1021.32 1021.42 1021.53 1021.64 1021.78 1021.94 1022.12 1022.34 1022.59 1022.87 1023.16 1023.45 1023.73 1023.98 1024.18 1024.33 1024.44 1024.50 1024.54 1024.56
1019.01 1019.18 1019.37 1019.58 1019.80 1020.02 1020.24 1020.44 1020.62 1020.76 1020.87 1020.94 1020.98 1020.98 1020.96 1020.93 1020.88 1020.84 1020.81 1020.80 1020.80 1020.82 1020.86 1020.91 1020.98 1021.06 1021.16 1021.28 1021.43 1021.62 1021.84 1022.10 1022.40 1022.73 1023.05 1023.37 1023.66 1023.90 1024.09 1024.22 1024.31 1024.38 1024.43
1018.55 1018.69 1018.87 1019.06 1019.28 1019.49 1019.69 1019.88 1020.04 1020.18 1020.29 1020.38 1020.44 1020.48 1020.51 1020.52 1020.52 1020.51 1020.50 1020.49 1020.48 1020.48 1020.50 1020.53 1020.57 1020.63 1020.71 1020.82 1020.95 1021.13 1021.35 1021.62 1021.92 1022.26 1022.61 1022.95 1023.27 1023.54 1023.76 1023.93 1024.05 1024.14 1024.22
1018.15 1018.24 1018.37 1018.52 1018.69 1018.86 1019.03 1019.18 1019.32 1019.44 1019.56 1019.67 1019.78 1019.88 1019.97 1020.04 1020.10 1020.14 1020.16 1020.17 1020.17 1020.16 1020.17 1020.18 1020.21 1020.26 1020.32 1020.41 1020.53 1020.69 1020.90 1021.16 1021.46 1021.79 1022.15 1022.50 1022.84 1023.14 1023.39 1023.59 1023.75 1023.87 1023.98
1017.85 1017.86 1017.91 1017.99 1018.09 1018.20 1018.30 1018.41 1018.51 1018.62 1018.75 1018.89 1019.05 1019.22 1019.38 1019.52 1019.65 1019.74 1019.80 1019.83 1019.85 1019.85 1019.86 1019.87 1019.89 1019.93 1019.98 1020.06 1020.17 1020.31 1020.50 1020.74 1021.02 1021.34 1021.70 1022.06 1022.41 1022.72 1023.00 1023.23 1023.42 1023.58 1023.73
1017.68 1017.61 1017.57 1017.57 1017.58 1017.60 1017.63 1017.68 1017.74 1017.84 1017.97 1018.14 1018.34 1018.57 1018.80 1019.01 1019.19 1019.33 1019.43 1019.49 1019.52 1019.54 1019.55 1019.57 1019.59 1019.63 1019.68 1019.75 1019.85 1019.97 1020.14 1020.35 1020.61 1020.91 1021.25 1021.61 1021.97 1022.30 1022.61 1022.87 1023.10 1023.29 1023.47
1017.66 1017.52 1017.40 1017.31 1017.24 1017.18 1017.13 1017.11 1017.13 1017.21 1017.34 1017.53 1017.76 1018.03 1018.30 1018.56 1018.78 1018.95 1019.07 1019.15 1019.20 1019.22 1019.24 1019.27 1019.30 1019.34 1019.40 1019.46 1019.54 1019.65 1019.79 1019.97 1020.20 1020.48 1020.81 1021.16 1021.53 1021.88 1022.22 1022.51 1022.78 1023.00 1023.21
1017.82 1017.62 1017.45 1017.28 1017.13 1016.99 1016.88 1016.81 1016.78 1016.83 1016.95 1017.14 1017.39 1017.67 1017.97 1018.24 1018.47 1018.65 1018.77 1018.85 1018.89 1018.92 1018.95 1018.98 1019.02 1019.07 1019.12 1019.18 1019.25 1019.34 1019.44 1019.59 1019.80 1020.05 1020.36 1020.71 1021.08 1021.46 1021.82 1022.16 1022.46 1022.72 1022.95
1018.14 1017.92 1017.71 1017.50 1017.29 1017.10 1016.93 1016.81 1016.74 1016.76 1016.86 1017.04 1017.28 1017.56 1017.84 1018.09 1018.31 1018.46 1018.57 1018.62 1018.66 1018.68 1018.70 1018.74 1018.78 1018.83 1018.88 1018.93 1018.98 1019.04 1019.11 1019.23 1019.40 1019.63 1019.92 1020.27 1020.65 1021.05 1021.44 1021.81 1022.15 1022.44 1022.70
1018.58 1018.38 1018.16 1017.93 1017.70 1017.47 1017.26 1017.11 1017.02 1017.01 1017.09 1017.24 1017.46 1017.70 1017.94 1018.16 1018.33 1018.44 1018.50 1018.53 1018.54 1018.54 1018.55 1018.58 1018.62 1018.67 1018.71 1018.74 1018.77 1018.79 1018.84 1018.91 1019.05 1019.25 1019.52 1019.86 1020.25 1020.66 1021.08 1021.49 1021.86 1022.19 1022.47
1019.11 1018.94 1018.74 1018.52 1018.28 1018.04 1017.82 1017.65 1017.54 1017.52 1017.58 1017.71 1017.89 1018.09 1018.29 1018.44 1018.55 1018.61 1018.62 1018.60 1018.58 1018.56 1018.55 1018.57 1018.60 1018.64 1018.66 1018.68 1018.67 1018.66 1018.66 1018.70 1018.79 1018.96 1019.21 1019.54 1019.92 1020.35 1020.78 1021.21 1021.61 1021.96 1022.26
1019.67 1019.54 1019.37 1019.17 1018.95 1018.72 1018.51 1018.35 1018.25 1018.23 1018.28 1018.38 1018.53 1018.69 1018.83 1018.92 1018.97 1018.97 1018.93 1018.86 1018.80 1018.76 1018.74 1018.75 1018.76 1018.79 1018.79 1018.78 1018.74 1018.69 1018.65 1018.65 1018.70 1018.83 1019.05 1019.35 1019.72 1020.14 1020.58 1021.01 1021.41 1021.77 1022.08
1020.18 1020.10 1019.98 1019.81 1019.62 1019.42 1019.25 1019.11 1019.04 1019.03 1019.08 1019.18 1019.31 1019.43 1019.52 1019.57 1019.56 1019.50 1019.42 1019.32 1019.23 1019.16 1019.13 1019.12 1019.13 1019.13 1019.12 1019.08 1019.02 1018.93 1018.85 1018.81 1018.82 1018.90 1019.08 1019.34 1019.68 1020.06 1020.48 1020.88 1021.26 1021.61 1021.91
1020.63 1020.59 1020.50 1020.38 1020.23 1020.08 1019.96 1019.87 1019.83 1019.85 1019.93 1020.03 1020.15 1020.24 1020.30 1020.31 1020.26 1020.16 1020.04 1019.91 1019.80 1019.72 1019.67 1019.66 1019.66 1019.65 1019.62 1019.57 1019.48 1019.37 1019.26 1019.18 1019.15 1019.19 1019.32 1019.53 1019.81 1020.13 1020.49 1020.84 1021.17 1021.47 1021.73
1020.99 1020.99 1020.95 1020.87 1020.77 1020.68 1020.61 1020.57 1020.59 1020.65 1020.75 1020.87 1020.98 1021.06 1021.10 1021.08 1021.00 1020.88 1020.73 1020.58 1020.46 1020.37 1020.31 1020.29 1020.29 1020.28 1020.24 1020.18 1020.08 1019.96 1019.84 1019.73 1019.66 1019.66 1019.74 1019.88 1020.08 1020.32 1020.59 1020.85 1021.10 1021.32 1021.52
1021.29 1021.33 1021.33 1021.30 1021.25 1021.22 1021.20 1021.22 1021.29 1021.39 1021.52 1021.65 1021.76 1021.84 1021.86 1021.81 1021.71 1021.57 1021.40 1021.24 1021.11 1021.01 1020.96 1020.93 1020.93 1020.92 1020.90 1020.84 1020.75 1020.63 1020.50 1020.39 1020.30 1020.26 1020.28 1020.34 1020.46 1020.60 1020.75 1020.90 1021.04 1021.16 1021.26
1021.57 1021.64 1021.68 1021.70 1021.71 1021.72 1021.76 1021.82 1021.93 1022.06 1022.20 1022.34 1022.45 1022.51 1022.51 1022.45 1022.33 1022.17 1021.99 1021.82 1021.68 1021.58 1021.52 1021.50 1021.50 1021.50 1021.49 1021.45 1021.38 1021.28 1021.17 1021.06 1020.96 1020.90 1020.86 1020.86 1020.88 1020.91 1020.94 1020.96 1020.96 1020.96 1020.96
1021.85 1021.97 1022.05 1022.11 1022.17 1022.22 1022.29 1022.38 1022.50 1022.64 1022.78 1022.91 1023.01 1023.05 1023.03 1022.94 1022.80 1022.62 1022.43 1022.25 1022.10 1021.99 1021.94 1021.92 1021.93 1021.94 1021.95 1021.94 1021.90 1021.84 1021.75 1021.66 1021.57 1021.49 1021.41 1021.35 1021.28 1021.20 1021.11 1021.00 1020.88 1020.75 1020.64
1022.18 1022.34 1022.46 1022.56 1022.64 1022.72 1022.80 1022.89 1023.00 1023.12 1023.24 1023.34 1023.41 1023.42 1023.37 1023.26 1023.10 1022.91 1022.71 1022.52 1022.36 1022.25 1022.19 1022.17 1022.19 1022.22 1022.25 1022.27 1022.27 1022.24 1022.19 1022.13 1022.05 1021.97 1021.87 1021.75 1021.62 1021.45 1021.26 1021.04 1020.80 1020.56 1020.34
1022.55 1022.75 1022.91 1023.03 1023.11 1023.18 1023.25 1023.32 1023.39 1023.48 1023.55 1023.61 1023.63 1023.61 1023.54 1023.41 1023.24 1023.04 1022.83 1022.63 1022.48 1022.36 1022.30 1022.28 1022.30 1022.34 1022.39 1022.44 1022.47 1022.48 1022.46 1022.43 1022.38 1022.30 1022.19 1022.05 1021.87 1021.64 1021.37 1021.06 1020.74 1020.41 1020.11
1022.94 1023.17 1023.34 1023.46 1023.53 1023.57 1023.60 1023.62 1023.64 1023.67 1023.69 1023.71 1023.69 1023.64 1023.55 1023.41 1023.24 1023.04 1022.84 1022.65 1022.50 1022.38 1022.32 1022.30 1022.33 1022.37 1022.43 1022.49 1022.54 1022.58 1022.59 1022.59 1022.55 1022.48 1022.38 1022.22 1022.02 1021.76 1021.45 1021.09 1020.71 1020.33 1019.98
1023.30 1023.54 1023.70 1023.80 1023.83 1023.82 1023.79 1023.75 1023.72 1023.69 1023.66 1023.64 1023.60 1023.54 1023.44 1023.31 1023.16 1022.98 1022.80 1022.63 1022.49 1022.39 1022.33 1022.31 1022.33 1022.37 1022.43 1022.50 1022.55 1022.60 1022.62 1022.63 1022.60 1022.54 1022.44 1022.29 1022.07 1021.81 1021.48 1021.11 1020.71 1020.31 1019.93
Thickness
5691 5689 5687 5686 5684 5682 5680 5678 5676 5674 5672 5670 5667 5665 5663 5661 5659 5656 5654 5651 5649 5646 5643 5641 5637 5634 5631 5629 5627 5624 5622 5620 5618 5617 5616 5615 5613 5613 5612 5612 5612 5612 5612
5688 5686 5684 5682 5680 5679 5677 5675 5673 5670 5668 5666 5664 5662 5660 5657 5655 5653 5650 5647 5644 5641 5638 5635 5633 5630 5627 5624 5622 5619 5616 5614 5612 5610 5609 5608 5607 5606 5605 5604 5605 5605 5605
5685 5683 5681 5679 5677 5676 5674 5671 5669 5666 5664 5662 5660 5658 5656 5654 5652 5649 5646 5643 5639 5636 5633 5630 5627 5625 5622 5619 5617 5614 5611 5608 5606 5604 5602 5601 5600 5599 5598 5597 5597 5597 5597
5682 5680 5678 5677 5675 5673 5670 5668 5665 5662 5660 5658 5656 5655 5653 5651 5649 5646 5643 5639 5635 5632 5628 5625 5622 5620 5617 5614 5612 5609 5606 5603 5600 5598 5596 5594 5593 5592 5591 5590 5589 5589 5589
5680 5678 5677 5675 5672 5670 5667 5665 5663 5660 5658 5656 5653 5652 5650 5647 5645 5642 5639 5635 5631 5628 5624 5621 5618 5615 5612 5609 5606 5604 5601 5598 5595 5592 5589 5588 5586 5585 5584 5583 5582 5582 5582
5677 5675 5674 5672 5670 5667 5665 5662 5660 5658 5655 5653 5650 5649 5646 5644 5641 5638 5635 5631 5628 5624 5620 5617 5613 5610 5606 5603 5600 5598 5596 5593 5589 5586 5583 5581 5579 5578 5577 5576 5575 5575 5575
5673 5672 5671 5669 5667 5665 5663 5661 5657 5654 5652 5647 5642 5642 5641 5639 5637 5634 5630 5626 5623 5620 5616 5612 5608 5604 5601 5598 5595 5592 5589 5586 5583 5580 5577 5574 5572 5570 5569 5569 5568 5568 5568
5668 5667 5667 5666 5664 5662 5659 5657 5653 5650 5647 5642 5636 5633 5633 5634 5631 5630 5626 5622 5619 5614 5610 5606 5602 5598 5595 5592 5589 5585 5582 5580 5577 5574 5571 5568 5565 5564 5562 5561 5561 5560 5560
5661 5661 5660 5660 5659 5657 5655 5652 5649 5645 5642 5637 5632 5627 5625 5627 5626 5624 5619 5616 5612 5607 5604 5599 5595 5591 5587 5584 5581 5578 5575 5572 5569 5566 5563 5561 5558 5556 5555 5554 5553 5553 5552
5652 5653 5653 5652 5651 5650 5649 5647 5644 5640 5636 5632 5626 5621 5619 5618 5614 5616 5613 5608 5604 5600 5596 5592 5588 5584 5579 5575 5571 5568 5565 5562 5559 5556 5554 5552 5550 5548 5546 5546 5545 5545 5544
5644 5644 5644 5644 5643 5642 5641 5639 5637 5633 5630 5627 5622 5616 5611 5607 5603 5601 5605 5602 5595 5592 5588 5584 5579 5574 5570 5565 5561 5557 5553 5550 5546 5544 5543 5541 5540 5538 5537 5536 5536 5536 5535
5634 5635 5635 5635 5634 5634 5633 5631 5629 5626 5623 5620 5617 5612 5606 5601 5597 5592 5594 5594 5589 5585 5579 5574 5569 5564 5560 5555 5550 5546 5541 5536 5533 5531 5531 5530 5528 5527 5526 5526 5526 5525 5524
5623 5624 5624 5625 5624 5624 5623 5622 5620 5618 5616 5613 5610 5606 5602 5598 5593 5588 5586 5585 5581 5576 5568 5562 5557 5552 5547 5542 5537 5532 5527 5523 5520 5519 5519 5518 5516 5514 5513 5513 5514 5513 5512
5612 5612 5613 5613 5613 5613 5612 5612 5610 5608 5606 5603 5600 5597 5593 5589 5584 5580 5576 5573 5571 5566 5556 5551 5544 5537 5532 5528 5523 5517 5512 5508 5506 5504 5505 5505 5503 5502 5501 5500 5500 5499 5499
5601 5601 5601 5601 5601 5601 5600 5600 5598 5596 5594 5591 5587 5584 5581 5577 5573 5569 5564 5560 5557 5556 5551 5541 5531 5524 5519 5514 5510 5506 5501 5497 5493 5492 5492 5492 5491 5490 5490 5488 5487 5487 5487
5588 5589 5589 5588 5588 5587 5587 5586 5584 5582 5580 5577 5574 5571 5567 5563 5559 5555 5551 5547 5542 5540 5538 5529 5518 5510 5506 5502 5498 5494 5491 5487 5484 5482 5481 5481 5480 5479 5478 5477 5476 5476 5477
5576 5576 5575 5575 5574 5573 5572 5571 5570 5568 5565 5562 5559 5556 5552 5548 5544 5540 5536 5532 5528 5524 5522 5515 5505 5499 5495 5492 5488 5484 5481 5477 5475 5474 5472 5471 5470 5468 5468 5466 5466 5466 5466
5563 5563 5562 5562 5560 5559 5558 5557 5555 5553 5550 5547 5544 5541 5537 5534 5530 5526 5522 5518 5514 5510 5507 5503 5495 5489 5485 5482 5479 5475 5472 5469 5466 5465 5463 5462 5460 5458 5458 5457 5456 5456 5456
5550 5550 5550 5548 5547 5545 5544 5543 5541 5538 5536 5532 5529 5526 5522 5519 5515 5512 5508 5504 5500 5498 5494 5490 5485 5480 5476 5473 5470 5466 5463 5459 5457 5455 5453 5451 5450 5449 5448 5447 5447 5447 5447
5537 5537 5537 5536 5534 5532 5531 5529 5527 5525 5522 5518 5515 5512 5509 5506 5502 5499 5495 5492 5489 5486 5483 5480 5476 5471 5467 5464 5461 5457 5454 5450 5448 5446 5443 5441 5440 5439 5437 5437 5437 5437 5436
5525 5525 5525 5524 5523 5522 5519 5516 5515 5512 5509 5505 5502 5499 5496 5494 5492 5489 5485 5480 5478 5475 5472 5469 5465 5462 5458 5454 5450 5447 5444 5440 5438 5435 5433 5431 5430 5429 5427 5427 5426 5425 5425
5514 5513 5513 5512 5512 5510 5508 5505 5502 5499 5495 5492 5488 5485 5483 5481 5478 5477 5474 5471 5469 5465 5460 5457 5453 5450 5445 5442 5439 5437 5433 5430 5428 5424 5422 5421 5419 5419 5418 5418 5417 5416 5415
5502 5501 5500 5500 5499 5498 5497 5494 5491 5486 5483 5479 5476 5473 5472 5469 5466 5463 5461 5459 5456 5454 5452 5446 5442 5437 5434 5431 5428 5425 5421 5418 5415 5413 5410 5409 5408 5408 5408 5407 5406 5406 5405
5492 5490 5489 5488 5487 5487 5486 5483 5479 5475 5472 5469 5466 5463 5461 5458 5457 5454 5451 5447 5444 5442 5439 5436 5432 5428 5425 5422 5418 5414 5410 5406 5404 5402 5399 5395 5395 5395 5396 5396 5394 5393 5392
5482 5480 5479 5477 5476 5475 5476 5473 5470 5465 5462 5459 5457 5455 5452 5450 5450 5446 5442 5437 5434 5431 5429 5426 5423 5419 5416 5413 5409 5404 5399 5393 5390 5390 5387 5383 5382 5381 5381 5381 5380 5378 5377
5473 5472 5470 5468 5467 5466 5467 5465 5462 5458 5454 5451 5449 5446 5444 5443 5442 5439 5433 5429 5425 5422 5419 5415 5412 5408 5405 5402 5398 5394 5388 5380 5375 5373 5373 5369 5366 5363 5362 5365 5363 5362 5359